Home > Time Zones > World Clock > Weather > Norway > Odda > Past weeks

Flag for Norway Weather past 2 weeks in Odda, Norway

Now
30 °F

Chilly.


Feels Like: 22 °F
Forecast: 38 / 50 °F
Wind: 9 mph from Southwest

Location: Midtlaeger

Current Time: Mar 7, 2015 at 1:30:04 AM

Latest Report: Mar 7, 2015 at 12:00 AM


Visibility: N/A

Pressure: 29.96 "Hg

Humidity: 87%

Dew point: 27 °F

Location of OddaLocation

Historic Weather in Odda — Graph

°F

Odda temperature yesterday

Maximum temperature yesterday: 32 °F (at 8:00 PM)
Minimum temperature yesterday: 26 °F (at 10:00 AM)
Average temperature yesterday: 29 °F

Past Weeks' High & Low Weather Summary

 TemperatureHumidityPressure
High32 °F (Mar 6, 8:00 PM)95% (Mar 6, 1:00 AM)30.31 "Hg (Mar 6, 1:00 AM)
Low13 °F (Mar 4, 8:00 AM)56% (Mar 4, 12:00 PM)28.79 "Hg (Feb 23, 7:00 AM)
Average25 °F86%29.50 "Hg
* Reported Midnight between Feb 19 and Feb 20 — Midnight between Mar 6 and Mar 7, Odda, Weather by CustomWeather, © 2015

Note: Actual official high and low records may vary slightly from our data, if they occured in-between our weather recording intervals... More about our weather records

Advertising

Odda weather history for previous 24 hours

 ConditionsComfort  
Time TempWeatherWind HumidityBarometerVisibility
12:00 AM
Sat, Mar 7
30 °FChilly.9 mph87%29.96 "HgN/A
11:00 PM
Fri, Mar 6
31 °FChilly.8 mph87%29.98 "HgN/A
9:00 PM32 °FChilly.8 mph84%30.04 "HgN/A
8:00 PM32 °FChilly.10 mph82%30.06 "HgN/A
7:00 PM31 °FChilly.6 mph90%30.09 "HgN/A
6:00 PM29 °FChilly.6 mph90%30.13 "HgN/A
5:00 PM29 °FChilly.7 mph88%30.15 "HgN/A
4:00 PM30 °FChilly.No wind82%30.15 "HgN/A
3:00 PM31 °FChilly.No wind75%30.16 "HgN/A
2:00 PM30 °FChilly.No wind74%30.18 "HgN/A
1:00 PM29 °FChilly.7 mph80%30.22 "HgN/A
12:00 PM28 °FChilly.No wind81%30.21 "HgN/A
11:00 AM29 °FChilly.No wind79%30.20 "HgN/A
10:00 AM26 °FChilly.No wind88%30.21 "HgN/A
9:00 AM27 °FChilly.9 mph87%30.20 "HgN/A
8:00 AM27 °FChilly.16 mph88%30.17 "HgN/A
7:00 AM27 °FChilly.13 mph90%30.16 "HgN/A
6:00 AM29 °FChilly.8 mph88%30.17 "HgN/A
5:00 AM29 °FChilly.8 mph90%30.15 "HgN/A
3:00 AM30 °FChilly.12 mph94%30.11 "HgN/A
2:00 AM30 °FChilly.8 mph94%30.11 "HgN/A
1:00 AM30 °FChilly.8 mph95%30.11 "HgN/A
Weather by CustomWeather, © 2015

See weather overviewHow to use our weather pages